Location: Gand�
(15.0971°N, 12.6564°W)
Time: 14:40:15
(UTC+00:00)

Atlas Centaur 2 - Pass Details

Date: 07 August 2020
Orbit: 459 x 1310 km, 30.4° (Epoch: 19 September)

Event Time Altitude Azimuth Distance (km) Brightness Sun altitude
Exits shadow 03:49:57 60° 53° (NE) 1,292 3.2 -36.9°
Drops below altitude 10° 03:56:30 10° 61° (ENE) 3,220 6.0 -35.6°
Sets 03:59:36 0° 62° (ENE) 4,246 6.9 -35.0°
